Weather History for Jacksonville, FL

Change the Weather History Date:

Wednesday, November 28, 2012

  Actual Average Record
Temperature  
Mean Temperature 53 °F 59 °F  
Max Temperature 58 °F 70 °F 85 °F (1948)
Min Temperature 48 °F 48 °F 26 °F (1903)
Degree Days  
Heating Degree Days 12 7  
Month to date heating degree days 203 131  
Since 1 July heating degree days 235 159  
Cooling Degree Days 0 1  
Month to date cooling degree days 14 57  
Year to date cooling degree days 2743 2640  
Growing Degree Days 2 (Base 50)    
Moisture  
Dew Point 52 °F    
Average Humidity 89    
Maximum Humidity 100    
Minimum Humidity 77    
Precipitation  
Precipitation 0.02 in 0.08 in 3.61 in (1884)
Month to date precipitation 0.27 1.95  
Year to date precipitation 51.10 49.43  
Snow  
Snow 0.00 in 0.00 in T in (1911)
Month to date snowfall 0.0 0.0  
Since 1 July snowfall 0.0 0.0  
Since 1 September snowfall 0.0 0.0  
Snow Depth 0.00 in    
Sea Level Pressure  
Sea Level Pressure 30.26 in    
Wind  
Wind Speed 7 mph (NNE)    
Max Wind Speed 13 mph    
Max Gust Speed 31 mph    
Visibility 7 miles    
Events Rain    
T = Trace of Precipitation, MM = Missing Value Source: NWS Daily Summary

Daily Weather History Graph

Daily Weather History Graph

Search for Another Location

Airport:

Trip Planner

Search our weather history database for the weather conditions in past years. The results will help you decide how hot, cold, wet, or windy it might be!

Date:

Astronomy

Nov. 28, 2012 Rise Set
Actual Time 7:04 AM EST 5:25 PM EST
Civil Twilight 6:37 AM EST 5:51 PM EST
Nautical Twilight 6:08 AM EST 6:21 PM EST
Astronomical Twilight 5:39 AM EST 6:50 PM EST
Moon 5:39 PM EST (11/28) 7:00 AM EST (11/28)
Length of Visible Light 11h 13m
Length of Day
10h 21m
Full, 100% of the Moon is Illuminated
Nov 28
Full
Dec 6
Last Quarter
Dec 13
New
Dec 20
First Quarter
Dec 28
Full

Hourly Weather History & Observations

Time (EST) Temp. Dew Point Humidity Pressure Visibility Wind Dir Wind Speed Gust Speed Precip Events Conditions
12:03 AM 57.2 °F 55.4 °F 94% 30.18 in 2.0 mi WSW 3.5 mph - 0.01 in Rain Light Rain
12:56 AM 57.0 °F 55.9 °F 96% 30.18 in 6.0 mi Calm Calm - 0.02 in Rain Light Rain
1:56 AM 57.0 °F 55.0 °F 93% 30.16 in 6.0 mi Calm Calm - 0.00 in   Overcast
2:56 AM 55.0 °F 54.0 °F 96% 30.16 in 6.0 mi North 5.8 mph - N/A   Mostly Cloudy
3:06 AM 55.4 °F 53.6 °F 94% 30.16 in 6.0 mi North 5.8 mph - N/A   Scattered Clouds
3:19 AM 55.4 °F 53.6 °F 94% 30.16 in 7.0 mi North 6.9 mph - N/A   Mostly Cloudy
3:31 AM 55.4 °F 53.6 °F 94% 30.17 in 2.0 mi North 4.6 mph - N/A   Mostly Cloudy
3:56 AM 55.0 °F 54.0 °F 96% 30.18 in 2.0 mi North 8.1 mph - N/A   Overcast
4:56 AM 55.0 °F 53.1 °F 93% 30.18 in 2.0 mi North 9.2 mph - N/A   Overcast
5:56 AM 55.0 °F 53.1 °F 93% 30.20 in 2.0 mi North 8.1 mph - N/A   Overcast
6:17 AM 55.4 °F 53.6 °F 94% 30.20 in 9.0 mi North 4.6 mph - N/A   Overcast
6:56 AM 54.0 °F 53.1 °F 97% 30.22 in 9.0 mi North 8.1 mph - N/A   Overcast
7:34 AM 53.6 °F 51.8 °F 94% 30.24 in 2.0 mi North 9.2 mph - N/A   Overcast
7:56 AM 53.1 °F 52.0 °F 96% 30.26 in 1.0 mi North 6.9 mph - N/A   Overcast
8:56 AM 53.1 °F 51.1 °F 93% 30.28 in 1.5 mi North 6.9 mph - N/A   Overcast
9:56 AM 53.6 °F 51.8 °F 94% 30.30 in 1.5 mi North 10.4 mph - N/A   Overcast
10:45 AM 53.6 °F 51.8 °F 94% 30.32 in 6.0 mi North 6.9 mph - N/A   Overcast
10:56 AM 53.1 °F 51.1 °F 93% 30.32 in 6.0 mi North 5.8 mph - N/A   Overcast
11:28 AM 53.6 °F 51.8 °F 94% 30.31 in 10.0 mi North 6.9 mph - N/A   Overcast
11:56 AM 54.0 °F 52.0 °F 93% 30.31 in 10.0 mi North 5.8 mph - N/A   Overcast
12:56 PM 55.0 °F 52.0 °F 89% 30.30 in 9.0 mi North 6.9 mph - N/A   Overcast
1:39 PM 55.4 °F 51.8 °F 88% 30.28 in 10.0 mi NNE 10.4 mph - N/A   Overcast
1:56 PM 55.0 °F 51.1 °F 86% 30.28 in 10.0 mi North 6.9 mph - N/A   Overcast
2:38 PM 55.4 °F 50.0 °F 82% 30.27 in 10.0 mi NNE 4.6 mph - N/A   Overcast
2:56 PM 55.9 °F 50.0 °F 80% 30.27 in 10.0 mi NNE 6.9 mph - N/A   Overcast
3:56 PM 55.0 °F 50.0 °F 83% 30.28 in 10.0 mi ENE 11.5 mph - N/A   Overcast
4:47 PM 55.4 °F 51.8 °F 88% 30.29 in 7.0 mi NE 5.8 mph - N/A   Overcast
4:56 PM 54.0 °F 51.1 °F 90% 30.29 in 7.0 mi NE 4.6 mph - N/A   Overcast
5:30 PM 53.6 °F 51.8 °F 94% 30.29 in 7.0 mi ENE 4.6 mph - N/A   Overcast
5:56 PM 54.0 °F 50.0 °F 86% 30.30 in 8.0 mi East 6.9 mph - N/A   Overcast
6:56 PM 54.0 °F 50.0 °F 86% 30.32 in 8.0 mi NE 5.8 mph - N/A   Overcast
7:56 PM 55.0 °F 48.9 °F 80% 30.34 in 10.0 mi NE 9.2 mph - N/A   Overcast
8:56 PM 54.0 °F 48.9 °F 83% 30.34 in 10.0 mi North 6.9 mph - N/A   Overcast
9:33 PM 53.6 °F 48.2 °F 82% 30.34 in 10.0 mi NNE 5.8 mph - N/A   Overcast
9:56 PM 52.0 °F 48.0 °F 86% 30.35 in 10.0 mi North 6.9 mph - N/A   Mostly Cloudy
10:56 PM 50.0 °F 46.9 °F 89% 30.35 in 10.0 mi North 4.6 mph - N/A   Scattered Clouds
11:56 PM 48.0 °F 45.0 °F 89% 30.33 in 9.0 mi North 4.6 mph - N/A   Partly Cloudy